Regional Weather Roundup
Issued by NWS

Home | Current Version | Previous Version | Text Only | Print | Product List | Glossary On
Versions: 1 2 3 4 5 6 7 8 9 10 11 12 13 14 15 16 17 18 19 20 21 22 23 24 25 26 27
000
ASUS46 KPQR 290410
RWROR

OREGON REGIONAL WEATHER ROUNDUP
NATIONAL WEATHER SERVICE PORTLAND OR
900 PM PDT THU JUL 28 2016

NOTE: "FAIR" INDICATES FEW OR NO CLOUDS BELOW 12,000 FEET WITH
NO SIGNIFICANT WEATHER AND/OR OBSTRUCTIONS TO VISIBILITY.

ORZ001>013-290500-
NORTHWEST OREGON


CITY           SKY/WX    TMP DP  RH WIND       PRES   REMARKS
ASTORIA        CLOUDY    60  56  86 W5        30.05S
NEWPORT        CLOUDY    57  55  94 N17       30.05S FOG
PORTLAND       CLEAR     82  59  45 NW13      29.93R
VANCOUVER WA   CLEAR     83  59  44 NW8       29.93R
SCAPPOOSE      CLEAR     83  57  41 NW8       29.93R
HILLSBORO      CLEAR     81  61  50 NW10      29.95R
AURORA         CLEAR     83  53  35 N5        29.95R
MCMINNVILLE    CLEAR     83  56  39 N9        29.95R
SALEM          CLEAR     83  56  39 NW8       29.93R
CORVALLIS        N/A     75  59  57 NW16      29.95S
EUGENE         CLEAR     80  59  48 N10       29.94R
$$

ORZ021-028-290500-
SOUTHWEST OREGON


CITY           SKY/WX    TMP DP  RH WIND       PRES   REMARKS
NORTH BEND     CLOUDY    59  57  94 N21G26    30.02S
BROOKINGS      CLEAR     59  53  80 CALM      29.88R
ROSEBURG       CLEAR     89  51  27 N5        29.92R
SEXTON SUMMIT  CLEAR     72  44  36 N14G23    30.09S
MEDFORD        CLEAR     91  55  29 NW7       29.89R
$$

ORZ014>016-041-290500-
COLUMBIA GORGE


CITY           SKY/WX    TMP DP  RH WIND       PRES   REMARKS
TROUTDALE      CLEAR     84  59  42 W6        29.92R
THE DALLES     CLEAR     89  60  37 NW16      29.85R
$$

ORZ029>031-041-044-049-050-061>064-502-503-505>511-290500-
EASTERN OREGON


CITY           SKY/WX    TMP DP  RH WIND       PRES   REMARKS
REDMOND        CLEAR     85  38  18 N8        30.02R
BEND           CLEAR     84  39  20 N5        30.05R
PRINEVILLE     CLEAR     82  43  24 N6        30.03S
KLAMATH FALLS  CLEAR     83  55  38 NW10      30.05R
LAKEVIEW       CLEAR    N/A N/A N/A N9        30.11R
HERMISTON      CLEAR     83  52  34 E3        29.86S
PENDLETON      CLEAR     80  43  26 NW7       29.92S
JOHN DAY       CLEAR     83  44  25 CALM      30.07R
MEACHAM        CLEAR     70  48  45 CALM      30.11R
LA GRANDE      CLEAR     81  46  30 NW5       30.01R
BAKER CITY     CLEAR     73  50  44 NW9       30.05R
BURNS          CLEAR     78  35  21 N7        30.06R
ROME             N/A     90  29  11 N9        30.01R
ONTARIO        CLEAR     79  50  36 NW6       29.91R
$$




USA.gov is the U.S. government's official web portal to all federal, state and local government web resources and services.